Arlington, WA
on Tuesday, November 27, 2012

Tuesday
Previous Day Next Day
Daily Summary
 ActualAverageRecord
Temperature
Mean Temperature °F °F  
Max Temperature 48°F 46°F 60°F (2014)
Min Temperature 26°F 21°F 21°F (1976)
Degree Days
Heating Degree Days 28    
Moisture
Dew Point 31°F   
Average Humidity 89    
Maximum Humidity 100    
Minimum Humidity 66    
Precipitation
Precipitation 0.00 in in in ()
Wind
Wind Speed 0 mph   
Max Wind Speed 6 mph   
Max Gust Speed mph   
Visibility 9 miles   
Events     
Averages and records for this station are not official NWS values.
Key: T is trace of precipitation, MM is missing value
Source: NWS Daily Summary
Seasonal Weather Averages
Time(PST)TemperatureDew PointHumidity Pressure Visibility Wind DirectionWind SpeedGust SpeedPrecipitationEvents Conditions
12:15 AM 28.4°F 24.8°F 86% 30.10 in 0.5 miles Calm Calm - N/A   Unknown
12:35 AM 28.4°F 26.6°F 93% 30.10 in 0.8 miles Calm Calm - N/A   Unknown
12:55 AM 26.6°F 24.8°F 93% 30.09 in 1.8 miles Calm Calm - N/A   Scattered Clouds
1:15 AM 28.4°F 28.4°F 100% 30.10 in 8.0 miles Calm Calm - N/A   Mostly Cloudy
1:35 AM 30.2°F 28.4°F 93% 30.10 in 7.0 miles Calm Calm - N/A   Overcast
1:55 AM 30.2°F 28.4°F 93% 30.09 in 8.0 miles Calm Calm - N/A   Overcast
2:15 AM 30.2°F 28.4°F 93% 30.10 in 10.0 miles Calm Calm - N/A   Overcast
2:35 AM 30.2°F 28.4°F 93% 30.09 in 10.0 miles Calm Calm - N/A   Overcast
2:55 AM 30.2°F 28.4°F 93% 30.10 in 10.0 miles Calm Calm - N/A   Mostly Cloudy
3:15 AM 30.2°F 28.4°F 93% 30.10 in 10.0 miles Calm Calm - N/A   Mostly Cloudy
3:35 AM 30.2°F 28.4°F 93% 30.10 in 10.0 miles Calm Calm - N/A   Overcast
3:55 AM 32.0°F 28.4°F 87% 30.10 in 10.0 miles Calm Calm - N/A   Overcast
4:15 AM 32.0°F 30.2°F 93% 30.09 in 10.0 miles Calm Calm - N/A   Mostly Cloudy
4:35 AM 30.2°F 28.4°F 93% 30.09 in 10.0 miles Calm Calm - N/A   Partly Cloudy
4:55 AM 30.2°F 28.4°F 93% 30.10 in 10.0 miles Calm Calm - N/A   Clear
5:15 AM 28.4°F 26.6°F 93% 30.09 in 10.0 miles Calm Calm - N/A   Clear
5:35 AM 30.2°F 28.4°F 93% 30.09 in 10.0 miles Calm Calm - N/A   Clear
5:55 AM 28.4°F 24.8°F 86% 30.09 in 10.0 miles Calm Calm - N/A   Clear
6:15 AM 30.2°F 26.6°F 86% 30.09 in 10.0 miles Calm Calm - N/A   Clear
6:35 AM 30.2°F 28.4°F 93% 30.09 in 10.0 miles Calm Calm - N/A   Clear
6:55 AM 30.2°F 28.4°F 93% 30.09 in 10.0 miles Calm Calm - N/A   Clear
7:15 AM 30.2°F 28.4°F 93% 30.09 in 10.0 miles Calm Calm - N/A   Clear
7:35 AM 30.2°F 26.6°F 86% 30.08 in 7.0 miles Calm Calm - N/A   Clear
7:55 AM 30.2°F 28.4°F 93% 30.09 in 8.0 miles Calm Calm - N/A   Partly Cloudy
8:15 AM 30.2°F 28.4°F 93% 30.09 in 10.0 miles Calm Calm - N/A   Partly Cloudy
8:35 AM 30.2°F 28.4°F 93% 30.09 in 10.0 miles Calm Calm - N/A   Clear
8:55 AM 32.0°F 30.2°F 93% 30.09 in 10.0 miles Calm Calm - N/A   Clear
9:15 AM 33.8°F 30.2°F 87% 30.09 in 10.0 miles Calm Calm - N/A   Clear
9:35 AM 33.8°F 30.2°F 87% 30.09 in 10.0 miles Calm Calm - N/A   Clear
9:55 AM 35.6°F 32.0°F 87% 30.10 in 10.0 miles Calm Calm - N/A   Clear
10:15 AM 37.4°F 33.8°F 87% 30.09 in 10.0 miles Calm Calm - N/A   Clear
2:15 PM 48.2°F 37.4°F 66% 30.02 in 10.0 miles Calm Calm - N/A   Clear
2:35 PM 48.2°F 37.4°F 66% 30.01 in 10.0 miles Calm Calm - N/A   Clear
2:55 PM 44.6°F 37.4°F 76% 30.00 in 10.0 miles NW 3.5 mph - N/A   Clear
3:15 PM 44.6°F 35.6°F 71% 30.00 in 10.0 miles NW 5.8 mph - N/A   Clear
3:55 PM 41.0°F 35.6°F 81% 30.00 in 10.0 miles WNW 3.5 mph - N/A   Clear
4:15 PM 41.0°F 33.8°F 76% 30.00 in 10.0 miles Calm Calm - N/A   Partly Cloudy
4:35 PM 39.2°F 33.8°F 81% 30.00 in 10.0 miles Calm Calm - N/A   Scattered Clouds
4:55 PM 39.2°F 33.8°F 81% 30.00 in 10.0 miles Calm Calm - N/A   Partly Cloudy
5:15 PM 39.2°F 33.8°F 81% 30.00 in 10.0 miles Calm Calm - N/A   Clear
5:35 PM 37.4°F 33.8°F 87% 30.00 in 10.0 miles Calm Calm - N/A   Partly Cloudy
5:55 PM 37.4°F 33.8°F 87% 30.00 in 10.0 miles Calm Calm - N/A   Mostly Cloudy
6:15 PM 39.2°F 35.6°F 87% 29.98 in 10.0 miles Calm Calm - N/A   Overcast
6:35 PM 37.4°F 33.8°F 87% 29.98 in 10.0 miles Calm Calm - N/A   Overcast
6:55 PM 37.4°F 35.6°F 93% 29.97 in 10.0 miles NNW 3.5 mph - N/A   Overcast
7:15 PM 37.4°F 35.6°F 93% 29.97 in 10.0 miles Calm Calm - N/A   Overcast
7:35 PM 39.2°F 35.6°F 87% 29.97 in 10.0 miles Calm Calm - N/A   Overcast
7:55 PM 39.2°F 35.6°F 87% 29.96 in 10.0 miles Calm Calm - N/A   Overcast
8:15 PM 37.4°F 35.6°F 93% 29.95 in 10.0 miles Calm Calm - N/A   Mostly Cloudy
8:35 PM 37.4°F 33.8°F 87% 29.95 in 10.0 miles Calm Calm - N/A   Mostly Cloudy
8:55 PM 35.6°F 33.8°F 93% 29.95 in 10.0 miles Calm Calm - N/A   Scattered Clouds
9:15 PM 35.6°F 33.8°F 93% 29.94 in 10.0 miles Calm Calm - N/A   Clear
9:35 PM 35.6°F 33.8°F 93% 29.94 in 10.0 miles Calm Calm - N/A   Clear
9:55 PM 35.6°F 33.8°F 93% 29.93 in 10.0 miles North 3.5 mph - N/A   Clear
10:15 PM 37.4°F 35.6°F 93% 29.93 in 10.0 miles Calm Calm - N/A   Clear
10:35 PM 37.4°F 35.6°F 93% 29.93 in 10.0 miles Calm Calm - N/A   Clear
10:55 PM 35.6°F 33.8°F 93% 29.94 in 10.0 miles Calm Calm - N/A   Clear
11:15 PM 35.6°F 32.0°F 87% 29.93 in 10.0 miles North 4.6 mph - N/A   Clear
11:35 PM 35.6°F 33.8°F 93% 29.92 in 10.0 miles Calm Calm - N/A   Clear
11:55 PM 35.6°F 32.0°F 87% 29.92 in 9.0 miles Calm Calm - N/A   Clear
Moon Phase
Nov. 27 Nov. 28 Dec. 06 Dec. 13 Dec. 20
Sunrise:07:33 AM (PST) Moon Rise:03:55 PM (PST)11/27
Sunset:04:19 PM (PST) Moon Set:06:41 AM (PST)11/27

Copyright © 2014 The Weather Underground, Inc.